Regional Weather Roundup
Issued by NWS

Home | Current Version | Previous Version | Text Only | Print | Product List | Glossary On
Versions: 1 2 3 4 5 6 7 8 9 10 11 12 13 14 15 16 17 18 19 20 21 22 23 24 25 26 27
000
ASUS42 KTBW 032217
RWRFL
FLORIDA REGIONAL WEATHER ROUNDUP
NATIONAL WEATHER SERVICE TAMPA BAY RUSKIN FL
600 PM EDT TUE MAY 03 2016

NOTE: "FAIR" INDICATES FEW OR NO CLOUDS BELOW 12,000 FEET WITH NO
SIGNIFICANT WEATHER AND/OR OBSTRUCTIONS TO VISIBILITY.

FLZ001>010-012>015-112-114-115-032300-
PANHANDLE FLORIDA

CITY           SKY/WX    TMP DP  RH WIND       PRES   REMARKS
PENSACOLA      CLOUDY    75  69  81 SE7       29.86R
PENSACOLA NAS  CLOUDY    76  70  82 NW3       29.85R
MILTON NAS     CLOUDY    79  70  74 N8        29.85
CRESTVIEW      PTSUNNY   80  67  64 NW9       29.85S
DUKE FIELD     LGT RAIN  77  70  80 S6        29.84R
VALPARAISO     TSTM      76  70  81 SW7       29.85R
MARY ESTHER    HVY RAIN  77  70  78 NW6       29.84  VSB 3/4
TRI COUNTY     PTSUNNY   74  68  81 N6        29.85F
PANAMA CITY    FAIR      79  70  74 S10       29.83F
TYNDALL AFB    SUNNY     80  71  73 SW13      29.85F
APALACHICOLA   MOSUNNY   82  73  74 S13       29.86F

STATION/POSITION SKY/WX   TEMP    WIND        PRES    WAVE   SWELL
                          AIR SEA DIR/SP/G            HT/PER HT/PER
                          (F)     (DEG/KT/KT) (MB)    (FT/S) (FT/S)
30.1N   87.6W              76 78  230/ 10/ 10 1010.3F   3/ 7   2/ 7
29.2N   88.2W              76 77   50/  4/  6 1011.5F
28.8N   86.0W              77 78  250/ 14/ 17 1011.5R   2/ 6   2/ 7
PANAMA CITY BEAC           77 78  190/  8/ 10 1011.6F
TOWER C                    76     200/ 13/ 13 1011.7F
28.5N   84.5W              76 76  140/ 10/ 16 1010.8F   2/ 5   2/ 6

$$
FLZ011-016>038-118-127-128-134-139-239-032300-
NORTH FLORIDA

CITY           SKY/WX    TMP DP  RH WIND       PRES   REMARKS
MARIANNA       MOSUNNY   75  70  84 W7        29.83R
TALLAHASSEE    PTSUNNY   78  67  68 S15       29.83S THUNDER
PERRY          CLOUDY    80  69  70 S10       29.86F
LIVE OAK       PTSUNNY   84  66  54 SW6       29.86F
CROSS CITY       N/A     83  69  62 SW12      29.86F
LAKE CITY      FAIR      82  66  57 SW12      29.85R
GAINESVILLE    PTSUNNY   85  66  53 W15G24    29.85F
WILLISTON      FAIR      84  72  65 S8        29.87F
PALATKA        FAIR      84  68  58 W14G21    29.86S
MAYPORT NAS    PTSUNNY   86  63  45 SW15      29.82S
JACKSONVILLE   PTSUNNY   85  66  53 SW9       29.82R
JAX NAS        PTSUNNY   89  64  43 SW10G21   29.83S
JAX CECIL      MOSUNNY   84  68  58 SW12      29.83F
FERNANDINA BEA FAIR      90  61  37 W7        29.81R
ST AUGUSTINE   TSTM      78  72  81 SE5       29.85S
PALM COAST     MOSUNNY   75  72  88 SW5       29.86F

STATION/POSITION SKY/WX   TEMP    WIND        PRES    WAVE   SWELL
                          AIR SEA DIR/SP/G            HT/PER HT/PER
                          (F)     (DEG/KT/KT) (MB)    (FT/S) (FT/S)
SHELL POINT                79     190/ 15/ 22 1009.7
KEATON BEACH               78     210/ 13/ 15 1010.9F
CEDAR KEY                  78     230/  8/ 10 1011.8F
FERNANDINA                 87 75  260/ 11/ 16 1009.4F
30.7N   81.3W                 75                N/A     3/ 5
MAYPORT                    87 72  280/  9/ 12 1009.8F
ST AUGUSTINE               76 71   60/ 12/ 15 1011.1F

$$
FLZ040-043>046-052-053-057-058-063-144-032300-
INTERIOR CENTRAL FLORIDA

CITY           SKY/WX    TMP DP  RH WIND       PRES   REMARKS
OCALA          SUNNY     84  64  51 W9        29.88F
THE VILLAGES     N/A     84  68  58 W10       29.78S
LEESBURG       MOSUNNY   85  66  53 W9        29.88S
SANFORD        CLOUDY    87  64  46 W16       29.86S
ORLANDO EXEC   CLOUDY    86  67  52 SW13      29.87R
ORLANDO INTL   CLOUDY    80  67  64 NW8       29.87R
KISSIMMEE      MOSUNNY   84  70  61 W8        29.88R
WINTER HAVEN   PTSUNNY   85  67  54 W14G21    29.89S
LAKELAND       PTSUNNY   86  70  58 W12       29.88F
BARTOW         FAIR      86  64  48 W13G18    29.89S
OKEECHOBEE     MOSUNNY   88  68  51 W5        29.86S

$$
FLZ041-047-054-059-064-141-147-032300-
EAST CENTRAL FLORIDA

CITY           SKY/WX    TMP DP  RH WIND       PRES   REMARKS
ORMOND BEACH   PTSUNNY   77  68  73 W6        29.85F
DAYTONA BEACH  CLOUDY    81  68  64 NW7       29.86S
DELAND           N/A     84  66  54 CALM      29.87F
NEW SMYRNA BEA MOSUNNY   84  68  58 NW9       29.87S
JFK SPACE CTR  PTSUNNY   86  69  55 SW8       29.85S
TITUSVILLE     MOSUNNY   86  64  48 W8        29.86S
CAPE CANAVERAL PTSUNNY   88  65  45 SW8       29.85S
PATRICK AFB    CLOUDY    87  69  55 NW8       29.86R
MELBOURNE      CLOUDY    88  65  46 W12       29.86R
VERO BEACH     CLOUDY    83  74  74 SE3       29.87R
FT PIERCE      PTSUNNY   86  68  54 VRB6      29.86R
STUART         MOSUNNY   93  63  36 W8        29.87S

STATION/POSITION SKY/WX   TEMP    WIND        PRES    WAVE   SWELL
                          AIR SEA DIR/SP/G            HT/PER HT/PER
                          (F)     (DEG/KT/KT) (MB)    (FT/S) (FT/S)
28.5N   80.2W              79 79  160/ 10/ 12 1011.4F
28.9N   78.5W              78 79  220/  8/  8 1012.6R
TRIDENT PIER               87 81  220/ 13/ 15 1011.0F
28.4N   80.5W                 80                N/A     3/ 7
27.5N   80.2W                 79                N/A     3/11   2/11

$$
FLZ050-056-061-142-242-148-248-149-249-151-251-155-255-
160-260-032300-
WEST CENTRAL FLORIDA

CITY           SKY/WX    TMP DP  RH WIND       PRES   REMARKS
CRYSTAL RIVER  PTSUNNY   81  72  74 W8        29.88S
INVERNESS      PTSUNNY   82  72  69 W6        29.89F
BROOKSVILLE    PTSUNNY   81  71  71 W13       29.89F
ZEPHYRHILLS    FAIR      84  67  55 W8        29.88F
CLEARWATER AIR FAIR      81  73  78 W6        29.88F
ST PETE CLEARW PTSUNNY   84  71  65 W14       29.88F
TAMPA INTL     PTSUNNY   84  72  67 SW12      29.89F
TAMPA EXEC     PTSUNNY   88  68  51 W5        29.89F
PLANT CITY     PTSUNNY   86  72  62 W14       29.91S
MACDILL AFB    PTSUNNY   85  76  73 SW12      29.88F HX  95
PETER O KNIGHT PTSUNNY   86  73  66 W8        29.89S
ST PETERSBURG  MOSUNNY   82  72  71 W13       29.87F
SARASOTA       MOSUNNY   84  74  71 SW12      29.88F
VENICE         NOT AVBL

STATION/POSITION SKY/WX   TEMP    WIND        PRES    WAVE   SWELL
                          AIR SEA DIR/SP/G            HT/PER HT/PER
                          (F)     (DEG/KT/KT) (MB)    (FT/S) (FT/S)
27.3N   84.2W                 80                N/A     2/ 7
CLEARWATER BEACH           80 82  220/ 10/ 12 1012.6F
MIDDLE TAMPA BAY           80     260/ 10/ 11 1012.8F
VENICE                     81 85  240/  8/  8 1012.2F

$$
FLZ066-069-070-075>078-162-262-165-265-032300-
SOUTHWEST FLORIDA AND KEYS

CITY           SKY/WX    TMP DP  RH WIND       PRES   REMARKS
PUNTA GORDA    SUNNY     86  71  60 W13       29.91S
FT MYERS       SUNNY     86  72  62 W12       29.89R
SOUTHWEST INTL MOSUNNY   86  70  58 W10       29.89S
NAPLES         MOSUNNY   84  76  76 W10       29.90R
MARCO ISLAND   SUNNY     86  73  66 W8        29.90R
MARATHON       SUNNY     88  71  57 W8        29.89S
KEY WEST NAS   MOSUNNY   86  75  69 NW9       29.90S HX  95
KEY WEST INTL  SUNNY     84  79  85 NW8       29.90S HX  96

STATION/POSITION SKY/WX   TEMP    WIND        PRES    WAVE   SWELL
                          AIR SEA DIR/SP/G            HT/PER HT/PER
                          (F)     (DEG/KT/KT) (MB)    (FT/S) (FT/S)
NAPLES                        85              1012.4F
26.0N   85.6W              81 81  230/  6/  8 1013.1F   2/ 7   2/ 7
DRY TORTUGAS               81     270/  4/  6 1013.0R
SAND KEY                   82     320/  6/  8 1012.9F
LONG KEY                   83 85  260/ 10/ 11 1012.6S
MOLASSES REEF              82 81  250/  8     1012.6

$$
FLZ067-068-071>074-168-172>174-032300-
SOUTHEAST FLORIDA

CITY           SKY/WX    TMP DP  RH WIND       PRES   REMARKS
W PALM BEACH   PTSUNNY   85  74  69 S10       29.86S
BOCA RATON     MOSUNNY   84  72  65 SE17      29.86F
FT LAUDER-EXEC SUNNY     85  68  56 S8        29.87F
FT LAUDERDALE  PTSUNNY   84  65  52 S13       29.87F
POMPANO BEACH  MOSUNNY   85  71  63 S12       29.87F
PEMBROKE PINES PTSUNNY   83  70  64 S15G21    29.89F
OPA LOCKA      PTSUNNY   80  70  71 SE16      29.89F
MIAMI          CLOUDY    76  67  73 SE12G20   29.89S
WEST KENDALL   CLOUDY    74  70  87 E12G21    29.90R
HOMESTEAD      CLOUDY    78  70  76 NE9       29.89R THUNDER

STATION/POSITION SKY/WX   TEMP    WIND        PRES    WAVE   SWELL
                          AIR SEA DIR/SP/G            HT/PER HT/PER
                          (F)     (DEG/KT/KT) (MB)    (FT/S) (FT/S)
PORT EVERGLADES            82     180/  9/ 14 1011.7F
VIRGINIA KEY               77 83  320/  1/  3 1013.1R
LAKE WORTH                 80 80  170/ 19/ 22 1011.2F
SETTLEMENC1F1M1C2F2M2C3F3C4F4M3C5F5M4C6F6M5C7F7M6C8!



USA.gov is the U.S. government's official web portal to all federal, state and local government web resources and services.